sat.trackr.live / text

‹ back to catalog

STAR ONE C2

NORAD 32768 · 2008-018B

PAYLOAD ACTIVE UNKNOWN

§ Identity

Operator
Country
BRAZ
Launch date
2008-04-18
Launch site
FRGUI
Launch vehicle
Mass (kg)
RCS (m²)
10.76

Purposes: comms

External: N2YO · Heavens-Above · Gunter

§ Orbital elements

Epoch: 2026-09-10T01:43:12.509184Z

Period
1,436.09 min
Inclination
1.4510°
Eccentricity
0.0002482
Mean motion
1.00272522 rev/d
Perigee alt
35,775.9 km
Apogee alt
35,796.9 km
Semi-major
42,164.5 km
B*
0.0000e+0
RAAN
81.5013°
Arg perigee
95.4699°
Mean anomaly
132.9568°
Rev number
6,750

§ Raw data

STAR ONE C21 32768U 08018B   26253.07167256 -.00000296  00000+0  00000+0 0  99912 32768   1.4510  81.5013 0002482  95.4699 132.9568  1.00272522 67508

JSON: /api/v1/satellites/32768 · /tle

For live sub-satellite position, see the globe view (requires WebGL).

§ Visibility from observer

Set your observer location to see the next 7 days of passes ≥ 10°. The values pass through the URL so the page stays shareable.

No JS? Fill the form by hand. The geolocation button needs JavaScript.